TIME,DELAY(SENSOR),PRES,OXYGEN,RAWTEMP,T(OPTODE),TCPHASE,FLUOR,BETA(BETA700),BETA(BETA412),BETA(BETA440),CDOM,C(CSC),ED(ED411.90),ED(ED443.80),ED(ED489.40),ED(ED554.70),LU(LU412.20),LU(LU443.80),LU(LU489.40),LU(LU555.00),COMP,TILTX,TILTY,CHECK
1368225687,5807,879.0200195312500000,157.1566009521484400,453.8792114257812500,8.9536628723144530,40.0768585205078100,53,140,105,87,80,10770,2146963830,2147523382,2147291593,2147502784,2147085577,2146928731,2147708480,2147123328,1487,-1,8,64963
1368229283,5807,996.5100097656250000,214.3672943115234400,528.6909790039062000,6.6365427970886230,37.5489883422851560,52,107,98,80,80,10809,2146964169,2147516745,2147296411,2147516132,2147085842,2146923373,2147722678,2147123136,264,0,8,14555
1368232883,5803,1015.8900146484375000,209.5045013427734400,537.6978149414062000,6.3550000190734860,37.9939689636230500,53,112,99,79,81,10811,2146960841,2147518162,2147298523,2147514459,2147083410,2146916973,2147721252,2147122349,3101,-1,8,40081
1368236483,5804,1024.7299804687500000,221.3558959960937500,539.1259765625000000,6.3102970123291020,37.3403282165527340,52,105,99,81,81,10808,2146962532,2147520539,2147299163,2147518838,2147085366,2146919798,2147722148,2147121700,2538,-1,8,2778
1368240083,5806,1028.9399414062500000,231.2191925048828000,540.7202148437500000,6.2603859901428220,36.8324813842773440,52,109,98,81,81,10806,2146961874,2147517037,2147297334,2147519058,2147088164,2146921124,2147726893,2147121819,1265,-1,8,55241
1368243683,5806,1031.9899902343750000,231.7218017578125000,540.5640869140625000,6.2652721405029300,36.8023681640625000,52,109,96,79,80,10805,2146962998,2147521380,2147298368,2147520822,2147086235,2146918637,2147721938,2147121837,1287,-1,8,7935
1368247283,5802,1032.2099609375000000,231.9026031494140600,540.7703247070312000,6.2588138580322270,36.7970504760742200,52,110,97,80,81,10770,2146963163,2147519478,2147299611,2147519945,2147088246,2146919186,2147724068,2147121764,1245,-1,8,14524
1368250883,5804,1039.7299804687500000,231.3717041015625000,540.5313720703125000,6.2662940025329590,36.8206787109375000,52,109,99,80,80,10719,2146962715,2147521737,2147299565,2147517293,2147087771,2146921654,2147727186,2147119460,1660,-1,8,31771
1368254483,5808,1029.4699707031250000,216.4071044921875000,540.2597045898438000,6.2748031616210940,37.6404113769531250,52,104,97,83,80,10700,2146964114,2147517165,2147300086,2147519259,2147084105,2146919817,2147723958,2147120566,229,-1,8,6417
1368258083,5807,1028.3100585937500000,220.4877929687500000,539.9906005859375000,6.2832279205322270,37.4045486450195300,52,114,99,80,81,10699,2146963968,2147520228,2147297837,2147517558,2147083218,2146921810,2147724022,2147121462,539,0,8,59964
1368261683,5806,1027.0000000000000000,223.7254943847656200,540.5563964843750000,6.2655119895935060,37.2355308532714840,52,105,99,212,81,10615,2146963090,2147519369,2147298148,2147517156,2147086336,2146916672,2147722258,2147122560,480,-1,8,19813
1368265283,5808,1026.7700195312500000,223.4024963378906200,541.4371948242188000,6.2379279136657715,37.2686386108398440,53,105,97,81,80,10615,2146962870,2147519460,2147297700,2147517028,2147085833,2146920676,2147727798,2147119634,3178,0,8,38476
1368268883,5805,1025.5799560546875000,221.6221923828125000,542.3461303710938000,6.2094550132751465,37.3837814331054700,52,102,98,80,80,10606,2146964050,2147518756,2147298523,2147518317,2147082560,2146920091,2147724717,2147119405,3246,-1,8,7445
1368272483,5808,1024.0899658203125000,233.5816955566406200,543.0847778320312000,6.1863121986389160,36.7492904663085940,52,204,98,79,81,10606,2146961746,2147519497,2147300708,2147519506,2147085833,2146922230,2147723757,2147121188,23,-1,8,28294
1368276083,5809,1022.3300170898438000,229.3415069580078000,543.5410766601562000,6.1720142364501950,36.9837417602539060,52,168,98,79,80,10604,2146957888,2147517586,2147298889,2147517494,2147085238,2146924352,2147724333,2147119405,185,0,8,10920
1368279683,5809,1027.0200195312500000,231.5953063964843800,542.9722290039062000,6.1898398399353030,36.8529815673828100,52,110,97,79,81,10540,2146961984,2147518637,2147295533,2147520585,2147085056,2146920265,2147722788,2147122486,3580,-1,8,20645
1368283283,5807,1025.5500488281250000,234.3831939697265600,543.4119262695312000,6.1760621070861820,36.7134704589843750,52,105,96,79,81,10541,2146962678,2147519350,2147298953,2147520658,2147084434,2146916946,2147721270,2147122779,239,-1,8,45484
1368286883,5807,1028.2299804687500000,234.2866973876953000,543.2166137695312000,6.1821818351745605,36.7144889831543000,52,103,97,83,80,10539,2146963785,2147517458,2147298432,2147515090,2147086116,2146920649,2147729042,2147121545,486,-1,8,32241
1368290483,5806,1031.3800048828125000,232.8827056884765600,542.8922729492188000,6.1923451423645020,36.7828102111816400,52,107,98,80,80,10531,2146958765,2147519387,2147300361,2147519414,2147086089,2146915648,2147727771,2147122907,3528,-1,8,51685
1368294083,5806,1036.3000488281250000,230.5408020019531200,540.7692260742188000,6.2588500976562500,36.8693199157714840,52,105,98,80,80,10532,2146961691,2147522532,2147299894,2147518116,2147084708,2146923611,2147726957,2147121115,212,0,8,31346
1368297683,5806,1038.3299560546875000,229.4779968261718800,540.4769287109375000,6.2680020332336430,36.9207000732421900,52,105,99,80,81,10533,2146961517,2147520676,2147303360,2147516077,2147083684,2146924224,2147730130,2147123035,324,-1,8,19051
1368301283,5805,1017.8599853515625000,222.9647064208984400,532.0455932617188000,6.5317521095275880,37.1244697570800800,52,107,97,79,80,10531,2146963474,2147516790,2147299136,2147515584,2147086454,2146920054,2147722624,2147122130,3314,0,8,54126
1368304883,5805,1016.7700195312500000,223.0332031250000000,531.9348144531250000,6.5352149009704590,37.1183700561523440,52,105,99,78,81,10528,2146961234,2147519689,2147299428,2147518116,2147084635,2146910400,2147722112,2147119597,2794,0,8,16327
1368308483,5805,1015.5599975585938000,224.3910980224609400,531.6201171875000000,6.5450501441955570,37.0378684997558600,52,104,96,79,80,10527,2146961737,2147520283,2147298203,2147516781,2147084059,2146923410,2147721024,2147122898,3090,-1,8,58409
1368312083,5808,1011.7800292968750000,221.3509979248047000,533.2009277343750000,6.4956440925598145,37.2346801757812500,52,121,102,80,80,10520,2146961142,2147521188,2147299785,2147517540,2147084068,2146919725,2147720347,2147116461,332,0,8,11
1368315683,5804,1010.7100219726562000,222.1311035156250000,533.2883300781250000,6.4929080009460450,37.1922607421875000,52,110,97,79,80,10517,2146959652,2147519652,2147303222,2147513462,2147084086,2146922267,2147723190,2147118646,3210,-1,8,39663
1368319283,5806,1011.6799926757812000,216.7102050781250000,533.6143188476562000,6.4827179908752440,37.5035209655761700,53,111,111,81,79,10510,2146962038,2147517568,2147296841,2147519442,2147081042,2146919899,2147725110,2147124626,3272,-1,8,65412
1368322883,5805,1013.5800170898438000,225.3059997558593800,533.7545166015625000,6.4783358573913570,37.0261192321777340,52,285,97,79,80,10510,2146964224,2147521161,2147297782,2147515812,2147085851,2146919606,2147721252,2147119515,3216,-1,8,58932
1368326483,5806,1010.9299926757812000,227.7588958740234400,534.8588256835938000,6.4438099861145020,36.9126701354980500,52,105,98,80,80,10514,2146963008,2147517906,2147294244,2147516818,2147088502,2146916150,2147723657,2147122313,389,-1,8,54183
1368330083,5806,1012.8499755859375000,222.0471038818359400,533.6232910156250000,6.4824390411376950,37.2032699584960940,52,126,99,80,80,10492,2146963940,2147519506,2147298523,2147516544,2147084754,2146920448,2147722322,2147118253,3236,-1,8,55846
1368333683,5806,1015.4299926757812000,220.7991027832031200,532.4644165039062000,6.5186648368835450,37.2523117065429700,52,106,99,79,80,10486,2146961060,2147519506,2147297536,2147516891,2147085924,2146919003,2147721097,2147121499,3444,-1,8,13736
1368337283,5807,1014.0999755859375000,218.1723937988281200,533.6740112304688000,6.4808540344238280,37.4212303161621100,52,104,99,79,80,10487,2146961901,2147519067,2147297234,2147517083,2147084187,2146917952,2147721947,2147120521,3594,-1,8,55763
1368340883,5806,1018.8200073242188000,222.3397064208984400,533.1481933593750000,6.4972901344299320,37.1785316467285160,52,110,102,78,80,10448,2146959616,2147517321,2147299739,2147517430,2147086308,2146920850,2147723940,2147118665,296,-1,8,22039
1368344483,5804,1020.2399902343750000,221.1168975830078000,531.5662841796875000,6.5467300415039060,37.2186698913574200,52,110,101,81,81,10486,2146964589,2147518674,2147298450,2147518107,2147084580,2146918089,2147725147,2147119405,2963,-1,8,47388
1368348083,5805,1022.7999877929688000,223.3742980957031200,531.3956909179688000,6.5520591735839840,37.0898094177246100,51,106,99,81,81,10482,2146967908,2147514505,2147298614,2147515181,2147086107,2146921773,2147723200,2147118884,587,-1,8,5817
1368351683,5805,1019.9500122070312000,219.2785034179687500,531.3557128906250000,6.5533080101013180,37.3176803588867200,52,104,100,80,81,10485,2146964160,2147518893,2147298733,2147517769,2147089133,2146923008,2147724004,2147119762,3322,0,8,54909
1368355283,5806,1017.9000244140625000,220.0052947998047000,531.6386718750000000,6.5444660186767580,37.2817497253418000,52,106,98,79,81,10478,2146963894,2147520246,2147297033,2147513618,2147086354,2146920777,2147719168,2147121673,3378,-1,8,58518
1368358883,5806,1017.7999877929688000,220.9118041992187500,533.4854125976562000,6.4867482185363770,37.2639999389648440,52,108,97,80,81,10472,2146963949,2147516681,2147300626,2147518006,2147085257,2146917348,2147725805,2147122477,288,0,8,7294
1368362483,5808,1016.3200073242188000,220.4524993896484400,534.1729125976562000,6.4652581214904785,37.3015594482421900,53,103,99,79,81,10453,2146963209,2147520758,2147299483,2147513014,2147085558,2146921627,2147724608,2147122806,389,0,8,21902
1368366083,5807,1015.0900268554688000,220.8292999267578000,534.3491821289062000,6.4597430229187010,37.2840690612793000,52,107,98,79,80,10467,2146964251,2147522102,2147299163,2147515382,2147086610,2146921325,2147723364,2147120128,466,-1,8,18041
1368369356,5808,1015.5100097656250000,221.4158935546875000,534.4080810546875000,6.4579010009765625,37.2523002624511700,52,147,97,80,81,10729,2146965074,2147516187,2147301028,2147518098,2147085248,2146918756,2147721828,2147118464,324,0,8,5210
